STARLINK-4485, 53541

Orbit data source: Space-Track

STARLINK-4485, 53541 is a payload satellite owned by SpaceX/Seattle (US) in LEO that was launched on Fri, 19 Aug 2022 UTC via an FALCON 9 launch vehicle from the Air Force Eastern Test Range (AFETR). Payload-class satellites include a variety of spacecraft equipped with specific instruments for various scientific and technological missions. These include communications satellites like Starlink; space stations such as the ISS; scientific satellites like the Hubble; Earth observation satellites from companies like Planet Labs, Umbra, and HawkEye 360; GPS; miniature CubeSats for education and research; and military/defense satellites.

Loading next visibility...
Identifier
53541, 2022-101Q
Orbit
LEO
Country
Flag of USUS
Related business
Manufacturer
SpaceX/Seattle
Mission
Operational Commercial Communications
Bus & Motor
STARLINK, Unknown motor
Mass
300 kg wet, ~290 kg dry
Launch date (UTC)
2022-08-19 (4 years ago)
Launch vehicle
FALCON 9
Launch site
Air Force Eastern Test Range (AFETR)
Object type
Payload
Rocket body
Debris
Shape & HBR
Box + 1 Pan, 10.1 m
Radar Cross Section
13.562 m², Large (>1 m²)

Expand to show TLE details & history
Last TLE update: 3 days ago

TLE from 3 days ago
0 STARLINK-4485
1 53541U 22101Q   26170.72669550  .00000102  00000-0  24531-4 0  9992
2 53541  53.1605 335.9471 0001201  84.7883 275.3246 15.08834961212261
Epoch: 2026-06-19T17:26Z
TLE epoch observation values (Epoch: 2026-06-19T17:26:26.491Z)
Latitude
0.00004°
Longitude
166.38522°
Altitude
540.573 km
Speed
7.593 km/s
True Right ascension
22h 23m 47s
True Declination
0° 00' 00"
Sunlit
Object was in daylight at epoch
Visualization orbit readout
Latitude
Unknown
Longitude
Unknown
Altitude
Unknown
Speed
Unknown
Apparent Right ascension
Unknown
Apparent Declination
Unknown
Sunlit
N/A
Visualization observer readout
Local Sidereal Time
21:26:36
Azimuth
Unknown
Elevation
Unknown
Doppler factor
Unknown
Orbital elements
Apogee altitude
540.844 km
Perigee altitude
539.182 km
Semi-major axis
6,918.15 km
Eccentricity
0.00012
Inclination
53.1605°
RAAN
335.9471°
Arg. of periapsis
84.7883°
True anomaly
275.3109°
Mean anomaly
275.3246°
Eccentric anomaly
275.31775°
Mean motion
3.77188 °/min
Orbital period
95.44 mins
BSTAR
0.000024531
Loading maneuver chart data...
Computing Atmospheric mass density...
Loading historical data...
Loading historical data...
Loading historical data...
Loading historical data...
Loading historical data...
Loading historical data...
Loading historical data...

Documentation

Showing up to 5 results
|